Location: *
(44.3925°N, 5.4708°E)
Time: 11:21:05
(UTC+00:00)

Cosmos 2333 Rocket - Pass Details

Date: 18 September 2019
Orbit: 840 x 862 km, 70.8° (Epoch: 14 October)

Event Time Altitude Azimuth Distance (km) Brightness Sun altitude
Rises 19:32:17 0° 327° (NNW) 3,423 6.3 -19.6°
Reaches altitude 10° 19:34:53 10° 320° (NW) 2,486 5.6 -20.1°
Maximum altitude 19:40:05 37° 254° (WSW) 1,294 3.5 -20.9°
Drops below altitude 10° 19:45:17 10° 188° (S) 2,483 4.5 -21.7°
Enters shadow 19:46:09 - 185° (S) 2,790 4.7 -21.9°
